Southern Pines, NC

12:07 AM EDT on March 28, 2017 (GMT -0400)
Moore County

Weather History for KSOP - September, 2011

Change the Weather History Date:

Saturday, September 17, 2011

  Actual Average Record
Temperature  
Mean Temperature 56 °F -  
Max Temperature 59 °F 78 °F 95 °F (2005)
Min Temperature 53 °F 58 °F 42 °F (2000)
Degree Days  
Heating Degree Days 9    
Growing Degree Days 6 (Base 50)    
Moisture  
Dew Point 53 °F    
Average Humidity 91    
Maximum Humidity 94    
Minimum Humidity 82    
Precipitation  
Precipitation 0.02 in - - ()
Sea Level Pressure  
Sea Level Pressure 30.26 in    
Wind  
Wind Speed 6 mph (NE)    
Max Wind Speed 10 mph    
Max Gust Speed -    
Visibility 6 miles    
Events      
Averages and records for this station are not official NWS values.
T = Trace of Precipitation, MM = Missing Value Source: NWS Daily Summary

Daily Weather History Graph

Daily Weather History Graph

Search for Another Location

Airport or City:

Trip Planner

Search our weather history database for the weather conditions in past years. The results will help you decide how hot, cold, wet, or windy it might be!

Date:

Astronomy

Sep. 17, 2011 Rise Set
Actual Time 7:01 AM EDT 7:22 PM EDT
Civil Twilight 6:36 AM EDT 7:47 PM EDT
Nautical Twilight 6:06 AM EDT 8:17 PM EDT
Astronomical Twilight 5:36 AM EDT 8:47 PM EDT
Moon 10:05 PM EDT (9/17) 11:48 AM EDT (9/17)
Length of Visible Light 13h 11m
Length of Day
12h 20m
Waning Gibbous, 77% of the Moon is Illuminated
Sep 17
Waning Gibbous
Sep 20
Last Quarter
Sep 27
New
Oct 3
First Quarter
Oct 11
Full

Hourly Weather History & Observations

Time (EDT) Temp. Dew Point Humidity Pressure Visibility Wind Dir Wind Speed Gust Speed Precip Events Conditions
12:15 AM 53.6 °F 48.2 °F 82% 30.28 in 10.0 mi NNE 5.8 mph - N/A   Overcast
12:55 AM 53.6 °F 50.0 °F 88% 30.27 in 10.0 mi NNE 4.6 mph - N/A   Overcast
1:15 AM 53.6 °F 50.0 °F 88% 30.27 in 10.0 mi NE 6.9 mph - N/A   Overcast
1:35 AM 53.6 °F 50.0 °F 88% 30.27 in 10.0 mi NE 5.8 mph - N/A   Overcast
1:55 AM 53.6 °F 50.0 °F 88% 30.27 in 10.0 mi NE 4.6 mph - N/A   Overcast
2:15 AM 53.6 °F 50.0 °F 88% 30.26 in 10.0 mi NE 4.6 mph - N/A   Overcast
2:35 AM 53.6 °F 50.0 °F 88% 30.25 in 10.0 mi NNE 3.5 mph - N/A   Overcast
3:15 AM 53.6 °F 51.8 °F 94% 30.25 in 10.0 mi NNE 5.8 mph - N/A   Overcast
3:35 AM 53.6 °F 51.8 °F 94% 30.25 in 9.0 mi NNE 3.5 mph - N/A   Overcast
3:55 AM 53.6 °F 51.8 °F 94% 30.24 in 4.0 mi NNE 4.6 mph - N/A   Overcast
4:15 AM 53.6 °F 51.8 °F 94% 30.24 in 4.0 mi NE 3.5 mph - N/A   Overcast
4:35 AM 53.6 °F 51.8 °F 94% 30.24 in 5.0 mi NNE 5.8 mph - N/A   Overcast
4:55 AM 53.6 °F 51.8 °F 94% 30.24 in 4.0 mi NNE 5.8 mph - N/A   Overcast
5:15 AM 53.6 °F 51.8 °F 94% 30.23 in 4.0 mi NE 8.1 mph - N/A   Overcast
5:35 AM 53.6 °F 51.8 °F 94% 30.23 in 4.0 mi NE 6.9 mph - N/A   Overcast
5:55 AM 53.6 °F 51.8 °F 94% 30.24 in 4.0 mi NNE 6.9 mph - N/A   Overcast
6:15 AM 53.6 °F 51.8 °F 94% 30.25 in 4.0 mi NNE 6.9 mph - N/A   Overcast
7:15 AM 53.6 °F 51.8 °F 94% 30.26 in 5.0 mi NE 6.9 mph - N/A   Overcast
7:35 AM 53.6 °F 51.8 °F 94% 30.26 in 3.0 mi NE 8.1 mph - N/A   Overcast
7:55 AM 53.6 °F 51.8 °F 94% 30.27 in 2.5 mi NE 8.1 mph - N/A   Overcast
8:15 AM 53.6 °F 51.8 °F 94% 30.27 in 2.5 mi NNE 5.8 mph - N/A   Overcast
8:35 AM 55.4 °F 51.8 °F 88% 30.27 in 3.0 mi NNE 6.9 mph - N/A   Overcast
9:15 AM 55.4 °F 53.6 °F 94% 30.28 in 3.0 mi NNE 6.9 mph - N/A   Overcast
9:35 AM 55.4 °F 53.6 °F 94% 30.28 in 5.0 mi NE 6.9 mph - N/A   Overcast
9:55 AM 55.4 °F 53.6 °F 94% 30.28 in 7.0 mi NNE 6.9 mph - N/A   Overcast
10:15 AM 55.4 °F 53.6 °F 94% 30.29 in 6.0 mi NE 5.8 mph - N/A   Overcast
10:35 AM 55.4 °F 53.6 °F 94% 30.29 in 4.0 mi NNE 5.8 mph - N/A   Overcast
10:55 AM 55.4 °F 53.6 °F 94% 30.30 in 4.0 mi NE 6.9 mph - N/A   Overcast
11:15 AM 55.4 °F 53.6 °F 94% 30.30 in 4.0 mi NNE 5.8 mph - N/A   Overcast
11:35 AM 57.2 °F 53.6 °F 88% 30.30 in 3.0 mi NE 6.9 mph - N/A   Overcast
11:55 AM 57.2 °F 53.6 °F 88% 30.30 in 3.0 mi NE 6.9 mph - N/A   Overcast
12:15 PM 57.2 °F 53.6 °F 88% 30.30 in 3.0 mi NE 8.1 mph - N/A   Overcast
12:35 PM 57.2 °F 55.4 °F 94% 30.29 in 4.0 mi NE 8.1 mph - N/A   Overcast
12:55 PM 57.2 °F 55.4 °F 94% 30.29 in 4.0 mi NE 5.8 mph - N/A   Overcast
1:15 PM 57.2 °F 55.4 °F 94% 30.28 in 5.0 mi NE 5.8 mph - N/A   Overcast
1:35 PM 57.2 °F 55.4 °F 94% 30.27 in 5.0 mi NE 6.9 mph - N/A   Overcast
2:15 PM 59.0 °F 55.4 °F 88% 30.25 in 10.0 mi NE 8.1 mph - N/A   Overcast
2:35 PM 59.0 °F 55.4 °F 88% 30.26 in 10.0 mi NE 4.6 mph - N/A   Overcast
2:55 PM 59.0 °F 55.4 °F 88% 30.26 in 10.0 mi NE 8.1 mph - N/A   Overcast
3:15 PM 59.0 °F 55.4 °F 88% 30.25 in 10.0 mi NE 10.4 mph - N/A   Overcast
3:35 PM 59.0 °F 55.4 °F 88% 30.25 in 10.0 mi NE 3.5 mph - N/A   Overcast
3:55 PM 59.0 °F 55.4 °F 88% 30.25 in 10.0 mi NE 4.6 mph - N/A   Overcast
4:15 PM 59.0 °F 55.4 °F 88% 30.25 in 10.0 mi NE 5.8 mph - N/A   Overcast
4:35 PM 59.0 °F 55.4 °F 88% 30.25 in 3.0 mi NNE 8.1 mph - N/A   Overcast
4:55 PM 59.0 °F 55.4 °F 88% 30.25 in 5.0 mi NE 6.9 mph - N/A   Overcast
5:15 PM 59.0 °F 55.4 °F 88% 30.25 in 10.0 mi NE 6.9 mph - N/A   Overcast
5:55 PM 59.0 °F 55.4 °F 88% 30.25 in 5.0 mi NE 4.6 mph - N/A   Overcast
6:15 PM 59.0 °F 55.4 °F 88% 30.26 in 3.0 mi NE 6.9 mph - N/A   Overcast
6:35 PM 59.0 °F 55.4 °F 88% 30.26 in 3.0 mi NE 5.8 mph - N/A   Overcast
6:55 PM 57.2 °F 55.4 °F 94% 30.26 in 5.0 mi NE 5.8 mph - N/A   Overcast
7:15 PM 57.2 °F 55.4 °F 94% 30.26 in 4.0 mi NNE 5.8 mph - N/A   Overcast
7:35 PM 57.2 °F 55.4 °F 94% 30.26 in 5.0 mi NNE 5.8 mph - N/A   Overcast
8:15 PM 57.2 °F 55.4 °F 94% 30.27 in 5.0 mi NNE 8.1 mph - N/A   Overcast
8:35 PM 57.2 °F 55.4 °F 94% 30.27 in 8.0 mi NNE 6.9 mph - N/A   Overcast
8:55 PM 57.2 °F 55.4 °F 94% 30.28 in 10.0 mi NE 9.2 mph - N/A   Overcast
9:35 PM 57.2 °F 55.4 °F 94% 30.29 in 10.0 mi NE 9.2 mph - N/A   Overcast
9:55 PM 57.2 °F 55.4 °F 94% 30.29 in 10.0 mi NE 6.9 mph - N/A   Overcast
10:15 PM 57.2 °F 53.6 °F 88% 30.29 in 10.0 mi NE 4.6 mph - N/A   Overcast
10:35 PM 57.2 °F 55.4 °F 94% 30.29 in 10.0 mi NNE 6.9 mph - N/A   Overcast
10:55 PM 57.2 °F 53.6 °F 88% 30.29 in 10.0 mi NE 6.9 mph - N/A   Overcast
11:15 PM 57.2 °F 53.6 °F 88% 30.29 in 10.0 mi NNE 6.9 mph - N/A   Overcast
11:35 PM 57.2 °F 53.6 °F 88% 30.29 in 10.0 mi NE 6.9 mph - N/A   Overcast
11:55 PM 57.2 °F 53.6 °F 88% 30.29 in 10.0 mi NE 6.9 mph - N/A   Overcast